TimePST,TemperatureF,Dew PointF,Humidity,Sea Level PressureIn,VisibilityMPH,Wind Direction,Wind SpeedMPH,Gust SpeedMPH,PrecipitationIn,Events,Conditions,WindDirDegrees,DateUTC
12:51 AM,57.0,15.1,19,30.06,10.0,NE,6.9,-,N/A,,Clear,40,2013-01-22 08:51:00
1:51 AM,55.0,14.0,20,30.05,10.0,NE,10.4,-,N/A,,Clear,50,2013-01-22 09:51:00
2:51 AM,55.9,12.9,18,30.05,10.0,ENE,8.1,-,N/A,,Clear,60,2013-01-22 10:51:00
3:51 AM,54.0,12.9,20,30.04,10.0,NE,9.2,-,N/A,,Clear,50,2013-01-22 11:51:00
4:51 AM,54.0,12.9,20,30.04,10.0,East,6.9,-,N/A,,Clear,80,2013-01-22 12:51:00
5:51 AM,54.0,12.0,19,30.06,10.0,East,6.9,-,N/A,,Clear,90,2013-01-22 13:51:00
6:51 AM,53.1,12.9,20,30.06,9.0,East,6.9,-,N/A,,Clear,80,2013-01-22 14:51:00
7:51 AM,55.0,17.1,23,30.07,10.0,East,5.8,-,N/A,,Clear,90,2013-01-22 15:51:00
8:51 AM,63.0,19.0,18,30.08,10.0,ENE,6.9,-,N/A,,Clear,60,2013-01-22 16:51:00
9:51 AM,69.1,21.0,16,30.08,10.0,ENE,8.1,-,N/A,,Clear,70,2013-01-22 17:51:00
10:51 AM,77.0,16.0,10,30.07,10.0,East,12.7,-,N/A,,Clear,90,2013-01-22 18:51:00
11:51 AM,80.1,10.9,7,30.04,9.0,ENE,11.5,20.7,N/A,,Clear,70,2013-01-22 19:51:00
12:51 PM,71.1,34.0,26,30.03,10.0,SSW,9.2,-,N/A,,Clear,200,2013-01-22 20:51:00
1:51 PM,73.9,23.0,15,30.02,9.0,SSE,9.2,-,N/A,,Clear,160,2013-01-22 21:51:00
2:51 PM,68.0,35.1,30,30.01,10.0,West,3.5,-,N/A,,Clear,260,2013-01-22 22:51:00
3:51 PM,62.1,41.0,46,30.04,10.0,West,5.8,-,N/A,,Clear,270,2013-01-22 23:51:00
4:51 PM,62.1,37.0,39,30.04,10.0,North,-9999.0,-,N/A,,Clear,0,2013-01-23 00:51:00
5:51 PM,59.0,36.0,42,30.04,10.0,East,3.5,-,N/A,,Clear,100,2013-01-23 01:51:00
6:51 PM,57.0,37.9,49,30.05,10.0,East,4.6,-,N/A,,Clear,90,2013-01-23 02:51:00
7:51 PM,57.0,30.0,36,30.04,10.0,NE,4.6,-,N/A,,Clear,40,2013-01-23 03:51:00
8:51 PM,55.9,28.9,36,30.05,10.0,Calm,Calm,-,N/A,,Clear,0,2013-01-23 04:51:00
9:51 PM,57.9,24.1,27,30.05,10.0,NE,5.8,-,N/A,,Clear,50,2013-01-23 05:51:00
10:51 PM,59.0,19.9,22,30.05,10.0,East,3.5,-,N/A,,Clear,100,2013-01-23 06:51:00
11:51 PM,60.1,19.0,20,30.04,10.0,NE,6.9,-,N/A,,Clear,40,2013-01-23 07:51:00